Regional Weather Roundup
Issued by NWS Raleigh/Durham, NC

Home | Current Version | Previous Version | Text Only | Print | Product List | Glossary On
Versions: 1 2 3 4 5 6 7 8 9 10 11 12 13 14 15 16 17 18 19 20 21 22 23 24 25 26 27 28 29 30 31 32 33 34 35 36 37 38 39 40 41 42 43 44 45 46 47 48 49 50
000
ASUS42 KRAH 241710
RWRRAH
NORTH CAROLINA WEATHER ROUNDUP
NATIONAL WEATHER SERVICE RALEIGH NC
100 PM EDT THU JUL 24 2014

NOTE: "FAIR" INDICATES FEW OR NO CLOUDS BELOW 12,000 FEET WITH NO
SIGNIFICANT WEATHER AND/OR OBSTRUCTIONS TO VISIBILITY.

NCZ001-053-055-056-065-067-241800-
WESTERN NORTH CAROLINA

CITY           SKY/WX    TMP DP  RH WIND       PRES   REMARKS
ASHEVILLE      SUNNY     81  67  62 VRB7      30.02F
JEFFERSON      PTSUNNY   76  59  55 W8        30.05F
MORGANTON      MOSUNNY  N/A N/A N/A S3        30.00F
HICKORY        MOSUNNY   80  68  66 CALM      29.96F
RUTHERFORDTON  MOSUNNY   82  71  69 W3        29.97S
MOUNT AIRY     RAIN      76  72  87 W3        29.94F
BOONE          PTSUNNY   72  61  68 NW7       30.06S
$$

NCZ021-022-025-041-071-084-088-241800-
CENTRAL NORTH CAROLINA

CITY           SKY/WX    TMP DP  RH WIND       PRES   REMARKS
CHARLOTTE      PTSUNNY   83  68  60 CALM      29.95F
GREENSBORO     PTSUNNY   82  70  66 VRB3      29.93F
WINSTON-SALEM  PTSUNNY   82  68  62 SW6       29.94F
RALEIGH-DURHAM PTSUNNY   84  71  65 VRB5      29.90F
FORT BRAGG     MOSUNNY   88  73  60 SW13      29.88F HX  96
FAYETTEVILLE   MOSUNNY   91  71  51 W17G26    29.88F HX  97
BURLINGTON     CLOUDY    83  69  62 VRB5      29.92F
LAURINBURG     MOSUNNY   90  72  55 W14       29.91F HX  97
$$

NCZ011-015-027-028-043-044-047-080-103-241800-
NORTHEASTERN NORTH CAROLINA

CITY           SKY/WX    TMP DP  RH WIND       PRES   REMARKS
ROCKY MT-WILSO PTSUNNY   83  73  72 E5        29.90S
GREENVILLE     LGT RAIN  73  73 100 S3        29.92F
WASHINGTON     MOSUNNY   74  72  96 W3        29.92R
ELIZABETH CITY CLOUDY    78  68  71 NE9       29.88S
MANTEO         NOT AVBL
CAPE HATTERAS  SUNNY     86  78  77 SW12G20   29.87F HX  98
$$

NCZ078-087-090-091-093-098-101-241800-
SOUTHEASTERN NORTH CAROLINA

CITY           SKY/WX    TMP DP  RH WIND       PRES   REMARKS
LUMBERTON      MOSUNNY   91  74  57 W17G24    29.89F HX 100
GOLDSBORO      LGT RAIN  79  79 100 NW3       29.88R
KINSTON        RAIN      73  73 100 E3        29.91S
KENANSVILLE    PTSUNNY   88  72  59 W9        29.88S HX  95
NEW BERN       PTSUNNY   92  75  57 NW16G33   29.92R HX 103
CHERRY POINT   NOT AVBL
BEAUFORT       MOSUNNY   86  80  82 SW23      29.89S HX 101
JACKSONVILLE   PTSUNNY   89  73  59 SW9       29.87F HX  97
WILMINGTON     SUNNY     92  73  53 SW18G25   29.89F HX 100
$$



USA.gov is the U.S. government's official web portal to all federal, state and local government web resources and services.